[[{"header":{"parameterUnit":"m.s-1","parameterCategory":1,"la1":30.2992,"la2":30.254,"lo1":-89.0895,"lo2":-89.0443,"dy":0.0025,"dx":0.0025,"nx":19,"ny":19,"refTime":"2026-05-04T21:00:00:Z","depth":0,"parameterNumber":2,"parameterNumberName":"U-component_of_WINDS"},"data":[0,0,0,0.7724,0.7723,0.7655,0.7655,0.7581,0.7581,0,0,0,0,0,0,0,0,0,0,0,0.7755,0.7755,0.7724,0.7723,0.7655,0.7655,0.7581,0.7581,0,0,0,0,0,0,0,0,0,0,0,0.7755,0.7755,0.7755,0.7723,0.7655,0.7655,0.7581,0.7627,0,0,0,0,0,0,0,0,0,0,0.7691,0.773,0.7755,0.7755,0.7722,0.7655,0.7654,0.7629,0.7624,0.7618,0,0.7618,0,0.7598,0.7577,0.7577,0,0,0,0.7714,0.7734,0.7706,0.7755,0.7722,0.7655,0.7683,0.7626,0.7621,0.7612,0.7617,0.7614,0.7597,0.7576,0.7576,0.7573,0.7574,0,0,0.7718,0.7748,0.771,0.7703,0.7717,0.7685,0.7681,0.7623,0.7629,0.7616,0.7612,0.7596,0.7576,0.7576,0.7573,0.7573,0,0,0,0.7734,0.7751,0.7724,0.7707,0.7694,0.7684,0.7679,0.7632,0.762,0.7611,0.7595,0.7576,0.7575,0.7572,0.7573,0.7621,0,0,0,0.7736,0.776,0.7726,0.7744,0.7695,0.7662,0.7689,0.7625,0.7617,0.7595,0.7576,0.7574,0.7572,0.7573,0.7618,0.7638,0,0,0,0.7755,0.7762,0.7757,0.7746,0.7718,0.7663,0.7648,0.7622,0.7608,0.7576,0.7574,0.7572,0.7573,0.7616,0.7634,0.7644,0,0,0,0.7784,0.78,0.7758,0.7769,0.7718,0.7694,0.7648,0.7628,0.7607,0.7575,0.7572,0.7573,0.7616,0.7632,0.7643,0.7658,0.7667,0,0,0.7821,0.7806,0.781,0.777,0.7761,0.7702,0.7698,0.765,0.7619,0.7589,0.7589,0.7619,0.7634,0.7644,0.7713,0.7721,0,0,0,0.7832,0.7835,0.7826,0.7808,0.7772,0.7742,0.7691,0.7673,0.7647,0.7611,0.7625,0.7633,0.7638,0.7643,0.765,0.7651,0.7577,0.7577,0.7577,0.7926,0.7886,0.7889,0.7841,0.7824,0.777,0.7752,0.7717,0.7682,0.7686,0.7677,0.7723,0.7731,0.7736,0.7738,0.7682,0.7683,0.7683,0.7683,0.7975,0.7972,0.7924,0.7911,0.7867,0.7854,0.7802,0.7777,0.7757,0.7728,0.7729,0.7699,0.7746,0.7745,0.7686,0.7685,0.7685,0.7685,0.7685,0.8031,0.8022,0.8001,0.7969,0.7948,0.7897,0.788,0.7841,0.7804,0.7806,0.779,0.7789,0.7782,0.7801,0.7802,0.7802,0.7802,0.7802,0.7802,0.8097,0.8071,0.8062,0.8025,0.8007,0.7978,0.7923,0.7903,0.7871,0.7844,0.7843,0.7806,0.7759,0.7747,0.7804,0.7804,0.7804,0.7803,0.7803,0.8159,0.8139,0.8126,0.8108,0.8059,0.8039,0.799,0.7952,0.793,0.7922,0.7884,0.7856,0.7837,0.7832,0.7821,0.7894,0.7894,0.7894,0.7894,0.8205,0.8192,0.8169,0.8142,0.8112,0.8065,0.8048,0.8004,0.7956,0.7939,0.7923,0.7906,0.7902,0.7885,0.7878,0.7868,0.7951,0.7951,0.7951,0.824,0.8222,0.8216,0.8171,0.8129,0.8093,0.8075,0.8044,0.7984,0.7953,0.7924,0.7922,0.7894,0.7888,0.7856,0.7846,0.7827,0,0]},{"header":{"parameterUnit":"m.s-1","parameterCategory":1,"la1":30.2992,"la2":30.254,"lo1":-89.0895,"lo2":-89.0443,"dy":0.0025,"dx":0.0025,"nx":19,"ny":19,"refTime":"2026-05-04T21:00:00:Z","depth":0,"parameterNumber":3,"parameterNumberName":"V-component_of_WINDS"},"data":[0,0,0,6.5748,6.575,6.5815,6.5815,6.5911,6.5912,0,0,0,0,0,0,0,0,0,0,0,6.574,6.5741,6.5748,6.575,6.5815,6.5815,6.5911,6.5912,0,0,0,0,0,0,0,0,0,0,0,6.5739,6.574,6.5742,6.575,6.5815,6.5815,6.5911,6.5856,0,0,0,0,0,0,0,0,0,0,6.5791,6.5794,6.574,6.5742,6.5751,6.5815,6.5815,6.5854,6.586,6.5888,0,6.5918,0,6.5917,6.592,6.592,0,0,0,6.5742,6.5789,6.5797,6.5742,6.5751,6.5815,6.5783,6.5857,6.5864,6.5896,6.592,6.5923,6.5919,6.592,6.5921,6.6115,6.6116,0,0,6.5738,6.5757,6.5792,6.5802,6.5796,6.5781,6.5785,6.5861,6.5887,6.592,6.5925,6.592,6.5921,6.5922,6.6114,6.6115,0,0,0,6.5733,6.5755,6.576,6.5799,6.581,6.5783,6.5788,6.5883,6.5883,6.5926,6.5921,6.5922,6.5923,6.6112,6.6114,6.6195,0,0,0,6.5731,6.5752,6.5759,6.5771,6.5809,6.5848,6.5809,6.5878,6.5886,6.5921,6.5922,6.5924,6.6111,6.6113,6.619,6.623,0,0,0,6.5732,6.5752,6.5765,6.5772,6.5801,6.5846,6.5851,6.588,6.5884,6.592,6.5924,6.611,6.6113,6.6185,6.6223,6.6285,0,0,0,6.5738,6.5838,6.5767,6.5876,6.5801,6.5897,6.585,6.5921,6.5961,6.5922,6.6111,6.6114,6.6184,6.6218,6.628,6.6339,6.6367,0,0,6.5874,6.5855,6.5918,6.5856,6.597,6.5886,6.601,6.603,6.6016,6.6082,6.6086,6.6192,6.6222,6.6284,6.6516,6.6538,0,0,0,6.5967,6.6012,6.6038,6.6078,6.6096,6.6112,6.6111,6.6117,6.6172,6.6055,6.6232,6.6249,6.6284,6.6312,6.633,6.6358,6.6128,6.6128,6.6128,6.6187,6.6163,6.6264,6.6247,6.6286,6.6282,6.631,6.6318,6.6283,6.6325,6.6344,6.6488,6.6521,6.6535,6.6564,6.6376,6.6376,6.6376,6.6376,6.6382,6.6441,6.6391,6.6471,6.6444,6.651,6.6508,6.6481,6.6537,6.6473,6.6503,6.6433,6.656,6.6584,6.6382,6.6381,6.6381,6.638,6.638,6.6522,6.6546,6.6552,6.6604,6.6647,6.6626,6.6681,6.6655,6.6631,6.6661,6.6676,6.6674,6.6667,6.667,6.667,6.6671,6.6671,6.6672,6.6672,6.6664,6.6668,6.6718,6.6743,6.6763,6.6786,6.678,6.6799,6.6812,6.6789,6.6788,6.6748,6.6578,6.6534,6.668,6.6678,6.6677,6.6677,6.6676,6.6868,6.6816,6.6894,6.6914,6.6938,6.698,6.6946,6.6985,6.6997,6.7024,6.6976,6.6856,6.6834,6.6819,6.6782,6.6983,6.6983,6.6983,6.6983,6.6984,6.697,6.7041,6.7074,6.7103,6.7079,6.7164,6.716,6.7147,6.7152,6.7119,6.7069,6.7055,6.7041,6.7021,6.6987,6.7235,6.7236,6.7236,6.7106,6.7093,6.7172,6.7159,6.7175,6.7188,6.7266,6.7304,6.7279,6.7245,6.7154,6.7143,6.7062,6.7038,6.7001,6.6971,6.6907,0,0]}]]